| time (UTC) | temp F | wind direction | speed MPH | gust MPH | rain 1hr in | rain 24hr in | rain mn in | humidity % | barometer mb |
| 20260507021028 | 65 | 241 | 0.0 | 1.0 | 0.00 | 0.06 | 0.06 | 89 | 1009.9 |
| 20260507020525 | 65 | 241 | 1.0 | 1.0 | 0.00 | 0.06 | 0.06 | 89 | 1009.9 |
| 20260507020021 | 65 | 174 | 0.0 | 0.0 | 0.00 | 0.06 | 0.06 | 89 | 1010.0 |
| 20260507015520 | 65 | 110 | 0.0 | 0.0 | 0.00 | 0.06 | 0.06 | 89 | 1009.8 |
| 20260507015017 | 65 | 177 | 0.0 | 0.0 | 0.00 | 0.06 | 0.06 | 89 | 1010.2 |
| 20260507014513 | 65 | 165 | 0.0 | 0.0 | 0.00 | 0.06 | 0.06 | 89 | 1010.2 |
| 20260507014009 | 65 | 155 | 0.0 | 0.0 | 0.00 | 0.06 | 0.06 | 89 | 1010.4 |
| 20260507013506 | 65 | 167 | 0.0 | 1.0 | 0.00 | 0.06 | 0.06 | 89 | 1010.4 |
| 20260507013003 | 65 | 221 | 1.0 | 2.0 | 0.00 | 0.06 | 0.06 | 89 | 1010.3 |
| 20260507012500 | 65 | 149 | 0.0 | 0.0 | 0.00 | 0.06 | 0.06 | 89 | 1009.8 |
| 20260507011956 | 65 | 210 | 0.0 | 1.0 | 0.00 | 0.06 | 0.06 | 89 | 1010.0 |
| 20260507011454 | 65 | 145 | 0.0 | 0.0 | 0.00 | 0.06 | 0.06 | 89 | 1009.9 |
| 20260507010949 | 65 | 176 | 1.0 | 1.0 | 0.00 | 0.06 | 0.06 | 89 | 1010.0 |
| 20260507010444 | 65 | 145 | 0.0 | 0.0 | 0.00 | 0.06 | 0.06 | 89 | 1009.8 |
| 20260507005941 | 65 | 147 | 0.0 | 0.0 | 0.00 | 0.06 | 0.06 | 89 | 1009.8 |
| 20260507005438 | 66 | 147 | 0.0 | 0.0 | 0.00 | 0.06 | 0.06 | 89 | 1009.7 |
| 20260507004935 | 66 | 146 | 0.0 | 0.0 | 0.00 | 0.06 | 0.06 | 88 | 1009.7 |
| 20260507004432 | 66 | 146 | 0.0 | 0.0 | 0.00 | 0.06 | 0.06 | 88 | 1009.7 |
| 20260507003929 | 66 | 150 | 0.0 | 0.0 | 0.00 | 0.06 | 0.06 | 88 | 1010.0 |
| 20260507003424 | 66 | 153 | 1.0 | 1.0 | 0.00 | 0.06 | 0.06 | 88 | 1009.7 |
| 20260507002919 | 66 | 154 | 0.0 | 1.0 | 0.00 | 0.06 | 0.06 | 88 | 1009.8 |
| 20260507002416 | 66 | 148 | 1.0 | 1.0 | 0.00 | 0.06 | 0.06 | 88 | 1009.9 |
| 20260507001913 | 66 | 157 | 1.0 | 1.0 | 0.00 | 0.06 | 0.06 | 87 | 1009.7 |
| 20260507001410 | 66 | 147 | 0.0 | 0.0 | 0.00 | 0.06 | 0.06 | 87 | 1009.6 |
| 20260507000908 | 66 | 166 | 0.0 | 1.0 | 0.00 | 0.06 | 0.06 | 87 | 1009.4 |
| 20260507000405 | 66 | 159 | 0.0 | 1.0 | 0.00 | 0.06 | 0.06 | 86 | 1009.3 |
| 20260506235859 | 67 | 150 | 0.0 | 0.0 | 0.00 | 0.06 | 0.06 | 86 | 1009.1 |
| 20260506235356 | 67 | 149 | 0.0 | 0.0 | 0.00 | 0.06 | 0.06 | 86 | 1008.9 |
| 20260506234851 | 67 | 146 | 0.0 | 1.0 | 0.00 | 0.06 | 0.06 | 85 | 1009.3 |
| 20260506234349 | 67 | 151 | 0.0 | 0.0 | 0.00 | 0.06 | 0.06 | 85 | 1009.1 |
| 20260506233847 | 67 | 169 | 0.0 | 1.0 | 0.00 | 0.06 | 0.06 | 84 | 1009.0 |
| 20260506233343 | 67 | 154 | 1.0 | 1.0 | 0.00 | 0.06 | 0.06 | 84 | 1009.1 |
| 20260506232840 | 67 | 172 | 1.0 | 1.0 | 0.00 | 0.06 | 0.06 | 84 | 1009.2 |
| 20260506232336 | 68 | 146 | 0.0 | 0.0 | 0.00 | 0.06 | 0.06 | 84 | 1009.1 |
| 20260506231832 | 68 | 200 | 1.0 | 1.0 | 0.00 | 0.06 | 0.06 | 83 | 1009.3 |
| 20260506231330 | 68 | 146 | 1.0 | 1.0 | 0.00 | 0.06 | 0.06 | 84 | 1009.2 |
| 20260506230827 | 68 | 209 | 1.0 | 1.0 | 0.00 | 0.06 | 0.06 | 83 | 1009.1 |
| 20260506230324 | 68 | 209 | 0.0 | 1.0 | 0.00 | 0.06 | 0.06 | 83 | 1008.9 |
| 20260506225820 | 68 | 209 | 0.0 | 1.0 | 0.00 | 0.06 | 0.06 | 83 | 1009.1 |
| 20260506225318 | 68 | 209 | 0.0 | 0.0 | 0.00 | 0.06 | 0.06 | 83 | 1009.1 |
| 20260506224814 | 68 | 173 | 0.0 | 1.0 | 0.00 | 0.06 | 0.06 | 83 | 1009.2 |
| 20260506224312 | 68 | 142 | 0.0 | 1.0 | 0.00 | 0.06 | 0.06 | 82 | 1008.9 |
| 20260506223808 | 68 | 196 | 0.0 | 1.0 | 0.00 | 0.06 | 0.06 | 82 | 1009.4 |
| 20260506223303 | 68 | 174 | 1.0 | 1.0 | 0.00 | 0.06 | 0.06 | 82 | 1009.0 |
| 20260506222800 | 68 | 162 | 1.0 | 1.0 | 0.00 | 0.06 | 0.06 | 82 | 1009.1 |
| 20260506222256 | 68 | 213 | 2.0 | 3.0 | 0.00 | 0.06 | 0.06 | 81 | 1009.3 |
| 20260506221754 | 68 | 138 | 0.0 | 0.0 | 0.00 | 0.06 | 0.06 | 81 | 1009.3 |
| 20260506221252 | 68 | 165 | 1.0 | 1.0 | 0.00 | 0.06 | 0.06 | 81 | 1009.1 |
| 20260506220750 | 68 | 199 | 2.0 | 3.0 | 0.00 | 0.06 | 0.06 | 81 | 1008.9 |
| 20260506220249 | 68 | 123 | 1.0 | 2.0 | 0.00 | 0.06 | 0.06 | 81 | 1009.0 |
| 20260506215747 | 68 | 241 | 2.0 | 3.0 | 0.00 | 0.06 | 0.06 | 81 | 1009.0 |
| 20260506215242 | 68 | 159 | 0.0 | 1.0 | 0.00 | 0.06 | 0.06 | 81 | 1009.0 |
| 20260506214739 | 68 | 203 | 2.0 | 2.0 | 0.00 | 0.06 | 0.06 | 80 | 1009.1 |
| 20260506214236 | 68 | 194 | 1.0 | 1.0 | 0.00 | 0.06 | 0.06 | 81 | 1009.0 |
| 20260506213734 | 68 | 170 | 1.0 | 1.0 | 0.00 | 0.06 | 0.06 | 80 | 1009.0 |
| 20260506213231 | 69 | 200 | 1.0 | 2.0 | 0.00 | 0.06 | 0.06 | 79 | 1008.9 |
| 20260506212728 | 69 | 166 | 2.0 | 2.0 | 0.00 | 0.06 | 0.06 | 78 | 1008.6 |
| 20260506212224 | 69 | 127 | 0.0 | 1.0 | 0.00 | 0.06 | 0.06 | 80 | 1008.9 |
| 20260506211719 | 69 | 190 | 2.0 | 3.0 | 0.00 | 0.06 | 0.06 | 80 | 1008.9 |
| 20260506211216 | 69 | 187 | 0.0 | 1.0 | 0.00 | 0.06 | 0.06 | 80 | 1008.8 |
| 20260506210713 | 68 | 219 | 2.0 | 2.0 | 0.00 | 0.06 | 0.06 | 79 | 1008.8 |
| 20260506210210 | 68 | 124 | 1.0 | 2.0 | 0.00 | 0.06 | 0.06 | 80 | 1008.9 |
| 20260506205707 | 68 | 230 | 1.0 | 2.0 | 0.00 | 0.06 | 0.06 | 80 | 1008.6 |
| 20260506205202 | 68 | 208 | 1.0 | 2.0 | 0.00 | 0.06 | 0.06 | 80 | 1008.6 |
| 20260506204659 | 68 | 131 | 2.0 | 3.0 | 0.00 | 0.06 | 0.06 | 80 | 1008.9 |
| 20260506204156 | 68 | 191 | 3.0 | 4.0 | 0.00 | 0.06 | 0.06 | 80 | 1008.8 |
| 20260506203654 | 68 | 174 | 2.0 | 3.0 | 0.00 | 0.06 | 0.06 | 81 | 1008.7 |
| 20260506203151 | 68 | 188 | 1.0 | 1.0 | 0.00 | 0.06 | 0.06 | 79 | 1008.7 |
| 20260506202649 | 68 | 153 | 1.0 | 2.0 | 0.00 | 0.06 | 0.06 | 80 | 1008.5 |
| 20260506202145 | 68 | 182 | 3.0 | 3.0 | 0.00 | 0.06 | 0.06 | 79 | 1008.7 |
| 20260506201642 | 69 | 75 | 1.0 | 3.0 | 0.00 | 0.06 | 0.06 | 78 | 1008.6 |
| 20260506201138 | 69 | 195 | 2.0 | 2.0 | 0.00 | 0.06 | 0.06 | 78 | 1008.6 |
| 20260506200635 | 68 | 125 | 1.0 | 2.0 | 0.00 | 0.06 | 0.06 | 79 | 1008.6 |
| 20260506200132 | 68 | 214 | 3.0 | 3.0 | 0.00 | 0.06 | 0.06 | 80 | 1008.4 |
| 20260506195629 | 67 | 190 | 4.0 | 4.0 | 0.00 | 0.06 | 0.06 | 80 | 1008.5 |
| 20260506195125 | 68 | 185 | 3.0 | 3.0 | 0.00 | 0.06 | 0.06 | 81 | 1008.7 |
| 20260506194623 | 68 | 192 | 2.0 | 3.0 | 0.00 | 0.06 | 0.06 | 82 | 1008.8 |
| 20260506194119 | 67 | 170 | 1.0 | 1.0 | 0.00 | 0.06 | 0.06 | 83 | 1008.8 |
| 20260506193617 | 66 | 124 | 1.0 | 1.0 | 0.00 | 0.06 | 0.06 | 85 | 1009.0 |
| 20260506193114 | 66 | 192 | 2.0 | 2.0 | 0.00 | 0.06 | 0.06 | 85 | 1009.0 |
| 20260506192611 | 66 | 191 | 2.0 | 3.0 | 0.00 | 0.06 | 0.06 | 84 | 1008.8 |
| 20260506192106 | 66 | 202 | 2.0 | 3.0 | 0.00 | 0.06 | 0.06 | 85 | 1008.9 |
| 20260506191603 | 65 | 199 | 4.0 | 4.0 | 0.00 | 0.06 | 0.06 | 85 | 1009.1 |
| 20260506191059 | 66 | 192 | 2.0 | 2.0 | 0.00 | 0.06 | 0.06 | 85 | 1009.4 |
| 20260506190557 | 65 | 199 | 2.0 | 2.0 | 0.00 | 0.06 | 0.06 | 86 | 1009.1 |
| 20260506190053 | 65 | 195 | 2.0 | 3.0 | 0.00 | 0.06 | 0.06 | 86 | 1009.3 |
| 20260506185551 | 65 | 225 | 4.0 | 8.0 | 0.00 | 0.06 | 0.06 | 86 | 1009.4 |
| 20260506185047 | 64 | 179 | 3.0 | 3.0 | 0.00 | 0.06 | 0.06 | 86 | 1009.3 |
| 20260506184544 | 64 | 179 | 3.0 | 3.0 | 0.00 | 0.06 | 0.06 | 87 | 1009.3 |
| 20260506184042 | 64 | 172 | 3.0 | 3.0 | 0.00 | 0.06 | 0.06 | 87 | 1009.4 |
| 20260506183537 | 64 | 123 | 0.0 | 0.0 | 0.00 | 0.06 | 0.06 | 87 | 1009.3 |
| 20260506183034 | 64 | 199 | 2.0 | 3.0 | 0.00 | 0.06 | 0.06 | 87 | 1009.2 |
| 20260506182532 | 64 | 146 | 2.0 | 3.0 | 0.00 | 0.06 | 0.06 | 87 | 1009.6 |
| 20260506182029 | 64 | 147 | 1.0 | 2.0 | 0.00 | 0.06 | 0.06 | 88 | 1009.6 |
| 20260506181527 | 64 | 191 | 3.0 | 3.0 | 0.00 | 0.06 | 0.06 | 87 | 1009.5 |
| 20260506181023 | 64 | 164 | 2.0 | 2.0 | 0.00 | 0.06 | 0.06 | 88 | 1009.5 |
| 20260506180520 | 64 | 175 | 3.0 | 3.0 | 0.00 | 0.06 | 0.06 | 89 | 1009.6 |
| 20260506180016 | 63 | 222 | 3.0 | 3.0 | 0.00 | 0.06 | 0.06 | 89 | 1009.8 |
| 20260506175513 | 63 | 167 | 2.0 | 3.0 | 0.00 | 0.06 | 0.06 | 90 | 1009.8 |
| 20260506175009 | 63 | 164 | 2.0 | 2.0 | 0.00 | 0.06 | 0.06 | 91 | 1009.9 |
| 20260506174508 | 63 | 127 | 0.0 | 0.0 | 0.00 | 0.06 | 0.06 | 91 | 1009.8 |
| 20260506174004 | 63 | 158 | 0.0 | 1.0 | 0.00 | 0.06 | 0.06 | 90 | 1009.7 |
| 20260506173502 | 63 | 129 | 4.0 | 4.0 | 0.00 | 0.06 | 0.06 | 91 | 1009.6 |
| 20260506172958 | 63 | 129 | 2.0 | 3.0 | 0.00 | 0.06 | 0.06 | 93 | 1009.8 |
| 20260506172456 | 62 | 126 | 1.0 | 2.0 | 0.00 | 0.06 | 0.06 | 94 | 1009.6 |
| 20260506171952 | 62 | 124 | 0.0 | 0.0 | 0.00 | 0.06 | 0.06 | 94 | 1009.7 |
| 20260506171449 | 62 | 122 | 1.0 | 2.0 | 0.00 | 0.06 | 0.06 | 94 | 1010.0 |
| 20260506170947 | 62 | 161 | 2.0 | 2.0 | 0.00 | 0.06 | 0.06 | 95 | 1010.0 |
| 20260506170443 | 62 | 91 | 1.0 | 2.0 | 0.00 | 0.06 | 0.06 | 94 | 1010.0 |
| 20260506165942 | 62 | 151 | 1.0 | 2.0 | 0.00 | 0.06 | 0.06 | 95 | 1010.0 |
| 20260506165440 | 62 | 190 | 1.0 | 2.0 | 0.00 | 0.06 | 0.06 | 95 | 1010.0 |
| 20260506164936 | 62 | 168 | 2.0 | 2.0 | 0.00 | 0.06 | 0.06 | 95 | 1010.0 |
| 20260506164433 | 62 | 158 | 0.0 | 1.0 | 0.00 | 0.06 | 0.06 | 95 | 1010.2 |
| 20260506163931 | 62 | 129 | 0.0 | 0.0 | 0.00 | 0.06 | 0.06 | 95 | 1010.0 |
| 20260506163426 | 62 | 167 | 2.0 | 3.0 | 0.00 | 0.06 | 0.06 | 95 | 1010.2 |
| 20260506162921 | 62 | 174 | 3.0 | 4.0 | 0.00 | 0.06 | 0.06 | 95 | 1010.2 |
| 20260506162419 | 62 | 150 | 4.0 | 6.0 | 0.00 | 0.06 | 0.06 | 95 | 1010.3 |
| 20260506161916 | 62 | 145 | 2.0 | 2.0 | 0.00 | 0.06 | 0.06 | 96 | 1010.5 |
| 20260506161414 | 62 | 93 | 4.0 | 7.0 | 0.07 | 0.06 | 0.06 | 96 | 1010.3 |
| 20260506160911 | 62 | 100 | 0.0 | 0.0 | 0.07 | 0.06 | 0.06 | 95 | 1010.4 |
| 20260506160407 | 61 | 147 | 1.0 | 3.0 | 0.05 | 0.05 | 0.05 | 95 | 1010.3 |
| 20260506155906 | 62 | 175 | 1.0 | 1.0 | 0.12 | 0.05 | 0.05 | 94 | 1010.6 |
| 20260506155402 | 62 | 123 | 0.0 | 1.0 | 0.07 | 0.04 | 0.04 | 93 | 1010.9 |
| 20260506153519 | 62 | 171 | 2.0 | 2.0 | 0.05 | 0.03 | 0.03 | 92 | 1011.4 |
| 20260506153016 | 62 | 125 | 0.0 | 1.0 | 0.12 | 0.03 | 0.03 | 91 | 1011.3 |
| 20260506152513 | 62 | 187 | 2.0 | 4.0 | 0.07 | 0.02 | 0.02 | 89 | 1011.4 |
| 20260506152011 | 62 | 166 | 4.0 | 4.0 | 0.00 | 0.01 | 0.01 | 87 | 1011.3 |
| 20260506151509 | 63 | 99 | 2.0 | 3.0 | 0.05 | 0.01 | 0.01 | 87 | 1011.3 |
| 20260506151006 | 63 | 167 | 2.0 | 3.0 | 0.05 | 0.01 | 0.01 | 86 | 1011.3 |
| 20260506150502 | 63 | 120 | 3.0 | 3.0 | 0.00 | 0.00 | 0.00 | 84 | 1011.0 |
| 20260506145959 | 63 | 121 | 0.0 | 0.0 | 0.00 | 0.00 | 0.00 | 85 | 1011.3 |
| 20260506145455 | 64 | 167 | 1.0 | 2.0 | 0.00 | 0.00 | 0.00 | 84 | 1011.1 |
| 20260506144953 | 64 | 153 | 4.0 | 4.0 | 0.00 | 0.00 | 0.00 | 81 | 1011.0 |
| 20260506144450 | 64 | 92 | 0.0 | 1.0 | 0.00 | 0.00 | 0.00 | 82 | 1011.2 |
| 20260506143948 | 65 | 134 | 2.0 | 2.0 | 0.00 | 0.00 | 0.00 | 79 | 1011.2 |
| 20260506143444 | 65 | 183 | 1.0 | 1.0 | 0.00 | 0.00 | 0.00 | 79 | 1011.2 |
| 20260506142943 | 66 | 177 | 1.0 | 2.0 | 0.00 | 0.00 | 0.00 | 76 | 1011.4 |
| 20260506142440 | 66 | 198 | 3.0 | 3.0 | 0.00 | 0.00 | 0.00 | 73 | 1011.3 |
| 20260506141938 | 66 | 156 | 2.0 | 3.0 | 0.00 | 0.00 | 0.00 | 73 | 1011.3 |
| 20260506141436 | 66 | 145 | 0.0 | 1.0 | 0.00 | 0.00 | 0.00 | 74 | 1011.2 |
| 20260506140934 | 66 | 226 | 6.0 | 6.0 | 0.00 | 0.00 | 0.00 | 73 | 1011.4 |
| 20260506140431 | 66 | 205 | 3.0 | 3.0 | 0.00 | 0.00 | 0.00 | 72 | 1011.4 |
| 20260506135928 | 66 | 165 | 2.0 | 2.0 | 0.00 | 0.00 | 0.00 | 71 | 1011.4 |
| 20260506135425 | 67 | 189 | 1.0 | 2.0 | 0.00 | 0.00 | 0.00 | 71 | 1011.3 |
| 20260506134921 | 67 | 139 | 2.0 | 2.0 | 0.00 | 0.00 | 0.00 | 71 | 1011.3 |
| 20260506134417 | 67 | 133 | 0.0 | 0.0 | 0.00 | 0.00 | 0.00 | 71 | 1011.0 |
| 20260506133914 | 67 | 186 | 4.0 | 6.0 | 0.00 | 0.00 | 0.00 | 70 | 1011.3 |
| 20260506133411 | 68 | 109 | 3.0 | 3.0 | 0.00 | 0.00 | 0.00 | 69 | 1011.0 |
| 20260506132908 | 68 | 161 | 2.0 | 3.0 | 0.00 | 0.00 | 0.00 | 70 | 1010.9 |
| 20260506132405 | 67 | 151 | 3.0 | 4.0 | 0.00 | 0.00 | 0.00 | 70 | 1011.0 |
| 20260506131903 | 67 | 168 | 3.0 | 4.0 | 0.00 | 0.00 | 0.00 | 71 | 1011.2 |
| 20260506131359 | 66 | 146 | 0.0 | 0.0 | 0.00 | 0.00 | 0.00 | 73 | 1011.3 |
| 20260506130856 | 66 | 121 | 1.0 | 1.0 | 0.00 | 0.00 | 0.00 | 73 | 1010.9 |
| 20260506130352 | 66 | 81 | 1.0 | 1.0 | 0.00 | 0.00 | 0.00 | 73 | 1011.2 |
| 20260506125850 | 66 | 134 | 0.0 | 1.0 | 0.00 | 0.00 | 0.00 | 74 | 1011.2 |
| 20260506125349 | 66 | 187 | 4.0 | 4.0 | 0.00 | 0.00 | 0.00 | 74 | 1011.3 |
| 20260506124847 | 66 | 169 | 2.0 | 2.0 | 0.00 | 0.00 | 0.00 | 74 | 1011.4 |
| 20260506124343 | 66 | 156 | 1.0 | 3.0 | 0.00 | 0.00 | 0.00 | 74 | 1011.5 |
| 20260506123841 | 66 | 182 | 3.0 | 4.0 | 0.00 | 0.00 | 0.00 | 74 | 1011.6 |
| 20260506123339 | 66 | 159 | 4.0 | 4.0 | 0.00 | 0.00 | 0.00 | 74 | 1011.3 |
| 20260506122836 | 66 | 189 | 3.0 | 7.0 | 0.00 | 0.00 | 0.00 | 75 | 1011.3 |
| 20260506122333 | 66 | 113 | 1.0 | 2.0 | 0.00 | 0.00 | 0.00 | 75 | 1011.5 |
| 20260506121831 | 66 | 169 | 3.0 | 3.0 | 0.00 | 0.00 | 0.00 | 75 | 1011.5 |
| 20260506121328 | 66 | 85 | 3.0 | 4.0 | 0.00 | 0.00 | 0.00 | 75 | 1011.2 |
| 20260506120825 | 66 | 133 | 0.0 | 1.0 | 0.00 | 0.00 | 0.00 | 76 | 1011.3 |
| 20260506120323 | 65 | 136 | 0.0 | 1.0 | 0.00 | 0.00 | 0.00 | 76 | 1011.2 |
| 20260506115820 | 65 | 200 | 3.0 | 4.0 | 0.00 | 0.00 | 0.00 | 76 | 1011.2 |
| 20260506115318 | 65 | 75 | 1.0 | 2.0 | 0.00 | 0.00 | 0.00 | 76 | 1011.0 |
| 20260506114815 | 65 | 150 | 2.0 | 4.0 | 0.00 | 0.00 | 0.00 | 76 | 1011.1 |
| 20260506114313 | 65 | 145 | 0.0 | 1.0 | 0.00 | 0.00 | 0.00 | 76 | 1010.9 |
| 20260506113811 | 65 | 152 | 1.0 | 6.0 | 0.00 | 0.00 | 0.00 | 76 | 1010.7 |
| 20260506113309 | 65 | 129 | 2.0 | 3.0 | 0.00 | 0.00 | 0.00 | 76 | 1010.9 |
| 20260506112805 | 65 | 137 | 0.0 | 1.0 | 0.00 | 0.00 | 0.00 | 77 | 1010.9 |
| 20260506112305 | 65 | 104 | 1.0 | 1.0 | 0.00 | 0.00 | 0.00 | 77 | 1010.6 |
| 20260506111800 | 65 | 159 | 1.0 | 2.0 | 0.00 | 0.00 | 0.00 | 76 | 1010.7 |
| 20260506111258 | 65 | 188 | 4.0 | 4.0 | 0.00 | 0.00 | 0.00 | 76 | 1010.9 |
| 20260506110755 | 65 | 172 | 2.0 | 3.0 | 0.00 | 0.00 | 0.00 | 77 | 1010.7 |
| 20260506110252 | 65 | 138 | 3.0 | 4.0 | 0.00 | 0.00 | 0.00 | 77 | 1010.9 |
| 20260506105748 | 65 | 145 | 2.0 | 2.0 | 0.00 | 0.00 | 0.00 | 77 | 1010.9 |
| 20260506105246 | 65 | 177 | 6.0 | 7.0 | 0.00 | 0.00 | 0.00 | 77 | 1011.1 |
| 20260506104743 | 65 | 174 | 6.0 | 6.0 | 0.00 | 0.00 | 0.00 | 77 | 1010.6 |
| 20260506104241 | 65 | 195 | 2.0 | 3.0 | 0.00 | 0.00 | 0.00 | 77 | 1010.7 |
| 20260506103738 | 64 | 137 | 1.0 | 2.0 | 0.00 | 0.00 | 0.00 | 78 | 1010.6 |
| 20260506103235 | 64 | 184 | 2.0 | 2.0 | 0.00 | 0.00 | 0.00 | 78 | 1010.9 |
| 20260506102733 | 64 | 170 | 4.0 | 4.0 | 0.00 | 0.00 | 0.00 | 78 | 1010.7 |
| 20260506102231 | 64 | 135 | 0.0 | 1.0 | 0.00 | 0.00 | 0.00 | 78 | 1010.7 |
| 20260506101727 | 64 | 159 | 6.0 | 7.0 | 0.00 | 0.00 | 0.00 | 78 | 1011.0 |
| 20260506101224 | 64 | 125 | 0.0 | 0.0 | 0.00 | 0.00 | 0.00 | 79 | 1010.9 |
| 20260506100722 | 64 | 132 | 1.0 | 2.0 | 0.00 | 0.00 | 0.00 | 79 | 1010.7 |
| 20260506100220 | 64 | 117 | 0.0 | 0.0 | 0.00 | 0.00 | 0.00 | 79 | 1011.1 |
| 20260506095718 | 64 | 105 | 2.0 | 3.0 | 0.00 | 0.00 | 0.00 | 79 | 1010.7 |
| 20260506095214 | 64 | 124 | 1.0 | 2.0 | 0.00 | 0.00 | 0.00 | 79 | 1010.7 |
| 20260506094711 | 64 | 144 | 0.0 | 0.0 | 0.00 | 0.00 | 0.00 | 79 | 1010.7 |
| 20260506094209 | 64 | 152 | 1.0 | 2.0 | 0.00 | 0.00 | 0.00 | 79 | 1010.7 |
| 20260506093708 | 64 | 193 | 1.0 | 2.0 | 0.00 | 0.00 | 0.00 | 78 | 1010.9 |
| 20260506093204 | 64 | 153 | 0.0 | 1.0 | 0.00 | 0.00 | 0.00 | 78 | 1010.7 |
| 20260506092702 | 64 | 212 | 4.0 | 6.0 | 0.00 | 0.00 | 0.00 | 78 | 1011.0 |
| 20260506092159 | 65 | 177 | 2.0 | 3.0 | 0.00 | 0.00 | 0.00 | 77 | 1010.7 |
| 20260506091657 | 65 | 107 | 0.0 | 0.0 | 0.00 | 0.00 | 0.00 | 78 | 1010.9 |
| 20260506091154 | 65 | 154 | 3.0 | 3.0 | 0.00 | 0.00 | 0.00 | 77 | 1011.0 |
| 20260506090652 | 65 | 162 | 2.0 | 3.0 | 0.00 | 0.00 | 0.00 | 77 | 1011.1 |
| 20260506090148 | 65 | 150 | 3.0 | 4.0 | 0.00 | 0.00 | 0.00 | 76 | 1010.9 |
| 20260506085645 | 65 | 173 | 3.0 | 3.0 | 0.00 | 0.00 | 0.00 | 77 | 1010.9 |
| 20260506085141 | 65 | 146 | 0.0 | 0.0 | 0.00 | 0.00 | 0.00 | 77 | 1011.0 |
| 20260506084638 | 66 | 111 | 0.0 | 0.0 | 0.00 | 0.00 | 0.00 | 76 | 1010.9 |
| 20260506084135 | 66 | 120 | 4.0 | 6.0 | 0.00 | 0.00 | 0.00 | 76 | 1010.9 |
| 20260506083632 | 66 | 151 | 1.0 | 2.0 | 0.00 | 0.00 | 0.00 | 76 | 1010.9 |
| 20260506083130 | 66 | 140 | 5.0 | 6.0 | 0.00 | 0.00 | 0.00 | 75 | 1010.9 |
| 20260506082626 | 66 | 70 | 1.0 | 2.0 | 0.00 | 0.00 | 0.00 | 75 | 1010.6 |
| 20260506082122 | 66 | 165 | 3.0 | 3.0 | 0.00 | 0.00 | 0.00 | 74 | 1010.7 |
| 20260506081620 | 67 | 94 | 0.0 | 0.0 | 0.00 | 0.00 | 0.00 | 74 | 1010.9 |
| 20260506081118 | 67 | 137 | 4.0 | 4.0 | 0.00 | 0.00 | 0.00 | 73 | 1010.9 |
| 20260506080615 | 67 | 128 | 1.0 | 2.0 | 0.00 | 0.00 | 0.00 | 74 | 1011.0 |
| 20260506080112 | 67 | 107 | 0.0 | 1.0 | 0.00 | 0.00 | 0.00 | 74 | 1011.0 |
| 20260506073055 | 67 | 146 | 3.0 | 3.0 | 0.00 | 0.00 | 0.00 | 73 | 1011.0 |
| 20260506072552 | 67 | 174 | 2.0 | 2.0 | 0.00 | 0.00 | 0.00 | 73 | 1011.4 |
| 20260506072050 | 67 | 168 | 3.0 | 4.0 | 0.00 | 0.00 | 0.00 | 73 | 1011.4 |
| 20260506071548 | 67 | 160 | 0.0 | 0.0 | 0.00 | 0.00 | 0.00 | 74 | 1011.3 |
| 20260506071045 | 67 | 137 | 2.0 | 4.0 | 0.00 | 0.00 | 0.00 | 73 | 1011.2 |
| 20260506070542 | 67 | 185 | 2.0 | 3.0 | 0.00 | 0.00 | 0.00 | 74 | 1011.3 |
| 20260506062016 | 67 | 180 | 2.0 | 2.0 | 0.00 | 0.00 | 0.00 | 74 | 1011.5 |
| 20260506061512 | 67 | 151 | 2.0 | 2.0 | 0.00 | 0.00 | 0.00 | 74 | 1011.6 |
| 20260506061010 | 67 | 171 | 1.0 | 1.0 | 0.00 | 0.00 | 0.00 | 74 | 1011.6 |
| 20260506060508 | 67 | 145 | 0.0 | 0.0 | 0.00 | 0.00 | 0.00 | 74 | 1011.7 |
| 20260506050937 | 68 | 128 | 1.0 | 2.0 | 0.00 | 0.00 | 0.00 | 71 | 1012.1 |
| 20260506050435 | 68 | 126 | 0.0 | 0.0 | 0.00 | 0.00 | 0.00 | 70 | 1012.0 |
| 20260506044925 | 68 | 161 | 2.0 | 3.0 | 0.00 | 0.00 | 0.00 | 68 | 1012.0 |
| 20260506044423 | 68 | 142 | 1.0 | 2.0 | 0.00 | 0.00 | 0.00 | 68 | 1011.9 |
| 20260506043920 | 69 | 147 | 0.0 | 1.0 | 0.00 | 0.00 | 0.00 | 67 | 1012.0 |
| 20260506043417 | 68 | 137 | 4.0 | 4.0 | 0.00 | 0.00 | 0.00 | 66 | 1012.0 |
| 20260506042915 | 69 | 103 | 0.0 | 0.0 | 0.00 | 0.00 | 0.00 | 66 | 1011.8 |
| 20260506042414 | 69 | 145 | 1.0 | 3.0 | 0.00 | 0.00 | 0.00 | 65 | 1012.1 |
| 20260506041912 | 69 | 133 | 0.0 | 0.0 | 0.00 | 0.00 | 0.00 | 65 | 1012.0 |
| 20260506041409 | 68 | 145 | 1.0 | 1.0 | 0.00 | 0.00 | 0.00 | 65 | 1011.7 |
| 20260506040906 | 69 | 84 | 0.0 | 1.0 | 0.00 | 0.00 | 0.00 | 64 | 1012.0 |
| 20260506040404 | 69 | 129 | 0.0 | 1.0 | 0.00 | 0.00 | 0.00 | 63 | 1012.1 |
| 20260506035859 | 69 | 135 | 0.0 | 1.0 | 0.00 | 0.00 | 0.00 | 63 | 1012.0 |
| 20260506035357 | 69 | 118 | 0.0 | 0.0 | 0.00 | 0.00 | 0.00 | 62 | 1011.9 |
| 20260506034854 | 69 | 152 | 1.0 | 1.0 | 0.00 | 0.00 | 0.00 | 62 | 1011.9 |
| 20260506034351 | 69 | 145 | 1.0 | 2.0 | 0.00 | 0.00 | 0.00 | 61 | 1011.7 |
| 20260506033848 | 69 | 149 | 2.0 | 3.0 | 0.00 | 0.00 | 0.00 | 61 | 1011.7 |
| 20260506033345 | 70 | 180 | 1.0 | 3.0 | 0.00 | 0.00 | 0.00 | 61 | 1011.7 |
| 20260506032842 | 70 | 142 | 1.0 | 1.0 | 0.00 | 0.00 | 0.00 | 61 | 1011.8 |
| 20260506032339 | 70 | 142 | 1.0 | 2.0 | 0.00 | 0.00 | 0.00 | 60 | 1011.7 |
| 20260506031836 | 70 | 150 | 0.0 | 1.0 | 0.00 | 0.00 | 0.00 | 60 | 1011.7 |
| 20260506031333 | 70 | 136 | 2.0 | 3.0 | 0.00 | 0.00 | 0.00 | 60 | 1011.7 |
| 20260506030831 | 70 | 129 | 1.0 | 2.0 | 0.00 | 0.00 | 0.00 | 60 | 1011.7 |
| 20260506030329 | 70 | 166 | 1.0 | 1.0 | 0.00 | 0.00 | 0.00 | 60 | 1011.7 |
| 20260506025825 | 70 | 94 | 1.0 | 2.0 | 0.00 | 0.00 | 0.00 | 59 | 1011.7 |
| 20260506025321 | 70 | 105 | 0.0 | 1.0 | 0.00 | 0.00 | 0.00 | 59 | 1011.9 |
| 20260506024819 | 70 | 121 | 1.0 | 3.0 | 0.00 | 0.00 | 0.00 | 59 | 1011.9 |
| 20260506024315 | 70 | 159 | 0.0 | 0.0 | 0.00 | 0.00 | 0.00 | 59 | 1011.9 |
| 20260506023811 | 70 | 135 | 0.0 | 0.0 | 0.00 | 0.00 | 0.00 | 59 | 1011.8 |
| 20260506023308 | 70 | 158 | 1.0 | 3.0 | 0.00 | 0.00 | 0.00 | 59 | 1011.9 |
| 20260506022805 | 70 | 169 | 4.0 | 4.0 | 0.00 | 0.00 | 0.00 | 59 | 1012.0 |
| 20260506022305 | 71 | 130 | 0.0 | 0.0 | 0.00 | 0.00 | 0.00 | 59 | 1012.0 |
| 20260506021801 | 71 | 118 | 0.0 | 0.0 | 0.00 | 0.00 | 0.00 | 58 | 1011.7 |
| 20260506021258 | 71 | 142 | 0.0 | 0.0 | 0.00 | 0.00 | 0.00 | 58 | 1011.8 |